[[{"header":{"parameterUnit":"m.s-1","parameterCategory":2,"la1":30.2991,"la2":30.254,"lo1":-89.0895,"lo2":-89.0444,"dy":0.0017,"dx":0.0017,"nx":28,"ny":28,"refTime":"2025-11-17T09:00:00:Z","depth":"0","parameterNumber":2,"parameterNumberName":"U-component_of_CURRENTS"},"data":[0,0,0,0,0,0,0,0,0,0,0,0,0,0,0,0,0,0,0,0,0,0,0,0,0,0,0,0,0,0,0,0,0,0,0,0,0,0,0,0,0,0,0,0,0,0,0,0,0,0,0,0,0,0,0,0,0,0,-0.2665,-0.2665,0,-0.2612,-0.2611,-0.261,-0.254,-0.2539,-0.2539,-0.2538,-0.2399,-0.2396,-0.2393,0,0,0,0,0,0,0,0,0,0,0,0,0,-0.2687,-0.2687,-0.2665,-0.2665,-0.2664,-0.2612,-0.2611,-0.2609,-0.254,-0.2539,-0.2538,-0.2537,-0.24,-0.2396,-0.2393,0,0,0,0,0,0,0,0,0,0,0,0,0,-0.2656,-0.2687,-0.2665,-0.2626,-0.2623,-0.2612,-0.2611,-0.2609,-0.254,-0.2539,-0.2538,-0.2537,-0.2401,-0.2396,-0.2392,-0.2388,0,0,-0.2378,-0.2376,0,0,0,0,0,0,0,0,-0.2658,-0.2655,-0.2632,-0.2629,-0.2625,-0.2585,-0.2567,-0.2532,-0.2541,-0.2568,-0.2538,-0.2536,-0.2456,-0.2447,-0.2435,-0.2381,-0.2375,-0.2378,-0.2375,-0.2373,-0.2372,0,0,0,0,0,0,0,-0.266,-0.2657,-0.264,-0.2632,-0.2628,-0.2605,-0.2599,-0.256,-0.2514,-0.2565,-0.2561,-0.2562,-0.2453,-0.244,-0.2431,-0.2373,-0.2378,-0.2374,-0.2371,-0.237,-0.2321,-0.2322,0,0,0,0,0,0,-0.2677,-0.2659,-0.2642,-0.2639,-0.2643,-0.2606,-0.2599,-0.2596,-0.2517,-0.2505,-0.2563,-0.2559,-0.2448,-0.2437,-0.2426,-0.2437,-0.2373,-0.2369,-0.2367,-0.232,-0.2321,-0.2323,0,0,0,0,0,0,-0.2678,-0.2676,-0.2644,-0.2651,-0.2646,-0.2607,-0.2604,-0.2595,-0.2587,-0.2517,-0.2502,-0.2564,-0.2447,-0.2432,-0.2402,-0.243,-0.2367,-0.2363,-0.2318,-0.232,-0.2322,-0.2444,0,0,0,0,0,0,-0.2679,-0.2676,-0.2675,-0.2652,-0.2646,-0.2655,-0.2605,-0.2595,-0.2591,-0.2585,-0.2513,-0.2499,-0.2445,-0.2409,-0.2398,-0.2422,-0.236,-0.2316,-0.2319,-0.2321,-0.2438,-0.245,-0.246,0,0,0,0,0,-0.2679,-0.2693,-0.2675,-0.2673,-0.2647,-0.2657,-0.2652,-0.2617,-0.2592,-0.2602,-0.2549,-0.2501,-0.2418,-0.2407,-0.2393,-0.2417,-0.2315,-0.2318,-0.2321,-0.2433,-0.2447,-0.246,0,0,0,0,0,0,-0.2692,-0.2687,-0.2667,-0.2673,-0.2672,-0.2647,-0.265,-0.2631,-0.2598,-0.2588,-0.2514,-0.2497,-0.2477,-0.2435,-0.2425,-0.2412,-0.236,-0.2361,-0.245,-0.2463,-0.2474,-0.25,-0.2356,0,0,0,0,0,-0.2698,-0.2708,-0.2699,-0.2702,-0.2706,-0.268,-0.2677,-0.2663,-0.2636,-0.262,-0.257,-0.2519,-0.2481,-0.2463,-0.2418,-0.2414,-0.2403,-0.2422,-0.2433,-0.2443,-0.2455,-0.2471,-0.2485,-0.2333,-0.2333,-0.2333,0,0,-0.2693,-0.27,-0.2697,-0.2706,-0.2696,-0.272,-0.2674,-0.2687,-0.2702,-0.261,-0.2603,-0.255,-0.2486,-0.2476,-0.2465,-0.2445,-0.2485,-0.2447,-0.2456,-0.2463,-0.2476,-0.2491,-0.2504,-0.2335,-0.2335,-0.2334,0,0,-0.2721,-0.2709,-0.2735,-0.2749,-0.2762,-0.2753,-0.2766,-0.2754,-0.2741,-0.2732,-0.2671,-0.2647,-0.2579,-0.2555,-0.2529,-0.2578,-0.2536,-0.2558,-0.2641,-0.2657,-0.267,-0.2681,-0.2708,-0.2721,-0.2572,-0.2573,-0.2573,0,-0.2721,-0.2752,-0.2743,-0.2786,-0.2805,-0.2778,-0.2819,-0.2809,-0.2787,-0.279,-0.2743,-0.268,-0.2622,-0.2629,-0.2638,-0.2605,-0.2606,-0.2596,-0.2673,-0.2684,-0.2693,-0.2718,-0.2731,-0.2579,-0.2578,-0.2577,-0.2577,0,-0.2772,-0.2804,-0.2827,-0.2868,-0.2889,-0.2923,-0.2922,-0.2934,-0.2907,-0.2891,-0.2883,-0.2812,-0.2782,-0.2759,-0.2703,-0.2748,-0.2726,-0.2681,-0.2645,-0.2716,-0.2738,-0.2749,-0.2588,-0.2586,-0.2584,-0.2582,0,0,-0.2745,-0.2846,-0.2848,-0.2896,-0.2941,-0.2966,-0.3005,-0.3034,-0.3065,-0.3024,-0.3059,-0.2986,-0.2952,-0.2922,-0.2865,-0.287,-0.2932,-0.2809,-0.2807,-0.2846,-0.2983,-0.2872,-0.2872,-0.29,-0.2902,-0.2903,-0.2979,0,-0.2784,-0.2895,-0.2926,-0.3013,-0.3069,-0.3084,-0.3125,-0.3149,-0.3143,-0.3169,-0.3116,-0.3103,-0.3014,-0.3,-0.3,-0.2933,-0.2963,-0.2917,-0.2898,-0.2898,-0.2799,-0.2881,-0.2659,-0.2698,-0.2989,-0.2991,-0.2992,0,-0.2809,-0.2892,-0.2993,-0.3113,-0.3135,-0.3173,-0.3248,-0.3283,-0.3315,-0.3314,-0.3313,-0.3263,-0.3258,-0.3169,-0.314,-0.3113,-0.3071,-0.3023,-0.3024,-0.2884,-0.2806,-0.2668,-0.2706,-0.2665,-0.3008,-0.3007,-0.3006,0,-0.2799,-0.2929,-0.3015,-0.3053,-0.3175,-0.3215,-0.3263,-0.3315,-0.3354,-0.3399,-0.3422,-0.3415,-0.3389,-0.3349,-0.3242,-0.3198,-0.3217,-0.3145,-0.3025,-0.3017,-0.2804,-0.2773,-0.2802,-0.3165,-0.3165,-0.3164,-0.3164,0,-0.2833,-0.2896,-0.3014,-0.3066,-0.3163,-0.3231,-0.332,-0.3367,-0.3438,-0.3479,-0.3483,-0.3495,-0.3426,-0.3411,-0.3326,-0.3212,-0.3292,-0.3062,-0.3033,-0.284,-0.2813,-0.2744,-0.2765,-0.3167,-0.3167,-0.3166,-0.3165,0,-0.2798,-0.2885,-0.2987,-0.3121,-0.3162,-0.3217,-0.3348,-0.3406,-0.3471,-0.353,-0.3541,-0.3564,-0.3503,-0.3456,-0.3388,-0.3292,-0.3138,-0.3167,-0.2952,-0.2894,-0.2677,-0.2713,-0.2733,-0.2664,-0.3029,-0.3027,-0.3025,0,-0.2784,-0.283,-0.2991,-0.3043,-0.3098,-0.3201,-0.3271,-0.3395,-0.3451,-0.354,-0.3554,-0.3545,-0.3443,-0.3346,-0.3194,-0.3069,-0.3066,-0.2851,-0.2708,-0.2662,-0.2682,-0.2716,-0.266,-0.2493,-0.2487,-0.2482,-0.2478,0,-0.2725,-0.2772,-0.2856,-0.2966,-0.305,-0.3151,-0.3252,-0.33,-0.3414,-0.3417,-0.3359,-0.3275,-0.32,-0.2927,-0.2845,-0.275,-0.2739,-0.2741,-0.2742,-0.2315,-0.2307,-0.2224,-0.2481,-0.2434,-0.2438,-0.2441,-0.2444,-0.2445,-0.2622,-0.2653,-0.2737,-0.2826,-0.2933,-0.2976,-0.2963,-0.3036,-0.3015,-0.2915,-0.3045,-0.2828,-0.272,-0.2485,-0.243,-0.2262,-0.2384,-0.2143,-0.2212,-0.2271,-0.2132,-0.2305,-0.2185,-0.2188,-0.219,-0.2192,-0.2194,0,-0.243,-0.2491,-0.2579,-0.2648,-0.2676,-0.2792,-0.2844,-0.2736,-0.2564,-0.2542,-0.2392,-0.2228,-0.2009,-0.1988,-0.1844,-0.175,-0.172,-0.1758,-0.1748,-0.1728,-0.1892,-0.1788,-0.1515,-0.1515,-0.1515,-0.1515,-0.1516,-0.1516,-0.2321,-0.2315,-0.2366,-0.2323,-0.2379,-0.229,-0.2249,-0.2083,-0.1988,-0.1699,-0.1598,-0.1542,-0.1654,-0.1746,-0.1609,-0.1529,-0.1531,-0.1468,-0.1605,-0.1695,-0.1736,-0.1775,-0.1681,-0.1391,-0.1391,-0.1298,-0.1297,-0.1297]},{"header":{"parameterUnit":"m.s-1","parameterCategory":2,"la1":30.2991,"la2":30.254,"lo1":-89.0895,"lo2":-89.0444,"dy":0.0017,"dx":0.0017,"nx":28,"ny":28,"refTime":"2025-11-17T09:00:00:Z","depth":"0","parameterNumber":3,"parameterNumberName":"V-component_of_CURRENTS"},"data":[0,0,0,0,0,0,0,0,0,0,0,0,0,0,0,0,0,0,0,0,0,0,0,0,0,0,0,0,0,0,0,0,0,0,0,0,0,0,0,0,0,0,0,0,0,0,0,0,0,0,0,0,0,0,0,0,0,0,0.084,0.0841,0,0.0909,0.091,0.0911,0.0951,0.0951,0.0951,0.0951,0.1028,0.103,0.1032,0,0,0,0,0,0,0,0,0,0,0,0,0,0.0787,0.0788,0.084,0.0841,0.0842,0.0909,0.091,0.0911,0.0951,0.0951,0.0951,0.0951,0.1028,0.103,0.1032,0,0,0,0,0,0,0,0,0,0,0,0,0,0.083,0.0788,0.084,0.0869,0.0872,0.0909,0.091,0.0912,0.0951,0.0951,0.0951,0.0951,0.1027,0.103,0.1033,0.105,0,0,0.1042,0.1043,0,0,0,0,0,0,0,0,0.0827,0.0832,0.0864,0.0867,0.087,0.0921,0.092,0.0958,0.0951,0.0922,0.0951,0.0951,0.0992,0.0998,0.1012,0.1054,0.1057,0.1042,0.1044,0.1045,0.1046,0,0,0,0,0,0,0,0.0824,0.0829,0.0868,0.0864,0.0868,0.0894,0.0899,0.0928,0.0957,0.0924,0.0927,0.0933,0.0994,0.1009,0.1014,0.1058,0.1042,0.1045,0.1047,0.1048,0.1096,0.1096,0,0,0,0,0,0,0.0811,0.0826,0.0866,0.087,0.0847,0.0894,0.0901,0.0905,0.0956,0.0964,0.0933,0.0935,0.1004,0.1011,0.1017,0.1016,0.1045,0.1048,0.105,0.1097,0.1096,0.1096,0,0,0,0,0,0,0.081,0.0814,0.0863,0.0849,0.0857,0.0895,0.09,0.0906,0.0917,0.0963,0.0971,0.0936,0.1004,0.1013,0.1033,0.1021,0.105,0.1052,0.1098,0.1097,0.1096,0.103,0,0,0,0,0,0,0.0808,0.0813,0.0805,0.0848,0.0857,0.0868,0.09,0.0908,0.0921,0.0924,0.0968,0.0976,0.1005,0.1029,0.1036,0.1025,0.1055,0.1098,0.1097,0.1096,0.1033,0.1027,0.1022,0,0,0,0,0,0.0806,0.0788,0.0804,0.0809,0.0847,0.0867,0.0874,0.0902,0.0921,0.0915,0.095,0.0974,0.1028,0.1031,0.104,0.1029,0.1099,0.1098,0.1096,0.1036,0.1028,0.1023,0,0,0,0,0,0,0.0755,0.0792,0.081,0.0803,0.0828,0.0873,0.0867,0.0896,0.0921,0.0924,0.0971,0.0981,0.0993,0.1021,0.1023,0.104,0.1066,0.1066,0.1016,0.101,0.1005,0.0998,0.1057,0,0,0,0,0,0.0742,0.0741,0.0782,0.0774,0.0782,0.0827,0.0837,0.0861,0.0892,0.0903,0.0938,0.0972,0.0997,0.101,0.1036,0.1048,0.1086,0.1046,0.1041,0.1036,0.1036,0.1102,0.1103,0.1092,0.1092,0.1092,0,0,0.0717,0.074,0.0736,0.0763,0.0784,0.0782,0.0832,0.0841,0.0845,0.0907,0.0917,0.0955,0.0996,0.1007,0.1015,0.1027,0.1052,0.1034,0.103,0.1033,0.1101,0.1103,0.1104,0.1091,0.1091,0.1091,0,0,0.0662,0.0688,0.0665,0.0683,0.0712,0.0743,0.0742,0.0786,0.0809,0.0826,0.0873,0.0908,0.0939,0.0975,0.0995,0.0978,0.1022,0.0977,0.0946,0.1009,0.1011,0.1013,0.1032,0.1036,0.0974,0.0974,0.0974,0,0.0628,0.0608,0.066,0.0646,0.0646,0.0719,0.069,0.073,0.0777,0.0796,0.0814,0.089,0.0926,0.0958,0.0949,0.0967,0.0995,0.0965,0.1003,0.1006,0.101,0.1029,0.1035,0.0971,0.0971,0.0971,0.0972,0,0.0555,0.0543,0.0529,0.0537,0.055,0.0536,0.0596,0.0621,0.0661,0.0707,0.0752,0.0818,0.0864,0.088,0.0907,0.0945,0.0952,0.0989,0.1019,0.1007,0.1027,0.1035,0.0966,0.0967,0.0968,0.0969,0,0,0.0461,0.0471,0.0462,0.044,0.0487,0.0479,0.0506,0.054,0.056,0.0628,0.0656,0.0719,0.0778,0.0805,0.086,0.0918,0.0957,0.0954,0.0959,0.0971,0.1065,0.1044,0.105,0.1004,0.1006,0.1007,0.1058,0,0.0377,0.0305,0.0352,0.0291,0.0255,0.0341,0.0357,0.0413,0.0482,0.0537,0.0641,0.0685,0.0744,0.0767,0.0837,0.0938,0.0978,0.0937,0.1076,0.108,0.1063,0.1059,0.1081,0.1127,0.1065,0.1067,0.1068,0,0.0277,0.0243,0.0157,0.0155,0.015,0.0142,0.0181,0.0212,0.0338,0.0397,0.0494,0.059,0.069,0.0742,0.0907,0.0878,0.0954,0.1032,0.1036,0.1049,0.1074,0.1137,0.1143,0.1292,0.1079,0.1078,0.1078,0,0.0144,0.0104,0.0021,0.0016,0.0036,0.0028,0.0052,0.0157,0.0183,0.0318,0.0352,0.0513,0.057,0.0726,0.0882,0.09,0.1056,0.1105,0.115,0.1148,0.1211,0.1212,0.1382,0.1203,0.1203,0.1203,0.1203,0,0.0024,-0.0036,-0.0054,-0.0099,-0.0183,-0.0104,-0.0131,-0.0066,0.0043,0.0069,0.0261,0.0303,0.057,0.07,0.0858,0.1015,0.1035,0.1141,0.1169,0.1183,0.118,0.1349,0.1412,0.1205,0.1204,0.1204,0.1204,0,-0.0109,-0.0112,-0.0215,-0.024,-0.0251,-0.0314,-0.028,-0.0275,-0.0153,-0.0107,-0.0073,0.0138,0.0317,0.0563,0.0806,0.0948,0.1211,0.1161,0.1133,0.1158,0.1355,0.1411,0.158,0.1674,0.1244,0.1244,0.1244,0,-0.0177,-0.025,-0.0357,-0.0426,-0.0445,-0.0498,-0.0515,-0.0404,-0.038,-0.0224,-0.022,-0.0029,0.0124,0.0471,0.076,0.1041,0.1181,0.1202,0.1253,0.1364,0.145,0.149,0.1561,0.1301,0.1301,0.1301,0.1302,0,-0.0315,-0.0364,-0.0461,-0.0608,-0.0674,-0.0728,-0.0735,-0.0737,-0.0585,-0.0506,-0.0379,-0.0235,0.0098,0.0445,0.0799,0.0975,0.1319,0.1214,0.1372,0.1536,0.1553,0.1656,0.1233,0.1305,0.1304,0.1304,0.1304,0.1304,-0.0415,-0.0535,-0.0658,-0.0793,-0.087,-0.091,-0.092,-0.0876,-0.0812,-0.0598,-0.0509,-0.0174,0.0234,0.0753,0.0929,0.1328,0.1326,0.1494,0.1556,0.1588,0.1678,0.1222,0.1299,0.1299,0.1298,0.1298,0.1298,0,-0.0509,-0.0646,-0.0811,-0.0944,-0.1026,-0.1019,-0.1022,-0.0957,-0.0858,-0.0585,-0.0394,0.0187,0.0584,0.1003,0.1478,0.1692,0.1771,0.1808,0.1913,0.1976,0.1621,0.1624,0.1725,0.1725,0.1725,0.1724,0.1724,0.1724,-0.056,-0.0749,-0.0847,-0.1024,-0.1097,-0.1107,-0.1083,-0.0967,-0.0745,-0.0283,0.0173,0.0496,0.0999,0.1595,0.2016,0.2064,0.2276,0.2233,0.235,0.2143,0.212,0.2098,0.212,0.2322,0.2323,0.271,0.2714,0.2717]}],[{"header":{"parameterUnit":"m.s-1","parameterCategory":2,"la1":30.2991,"la2":30.254,"lo1":-89.0895,"lo2":-89.0444,"dy":0.0017,"dx":0.0017,"nx":28,"ny":28,"refTime":"2025-11-17T09:00:00:Z","depth":"2","parameterNumber":2,"parameterNumberName":"U-component_of_CURRENTS"},"data":[0,0,0,0,0,0,0,0,0,0,0,0,0,0,0,0,0,0,0,0,0,0,0,0,0,0,0,0,0,0,0,0,0,0,0,0,0,0,0,0,0,0,0,0,0,0,0,0,0,0,0,0,0,0,0,0,0,0,-0.2405,-0.2408,0,-0.2614,-0.2615,-0.2617,-0.2644,-0.2643,-0.2642,-0.2642,-0.2541,-0.2539,-0.2537,0,0,0,0,0,0,0,0,0,0,0,0,0,-0.2138,-0.2141,-0.2405,-0.2409,-0.2413,-0.2614,-0.2616,-0.2617,-0.2644,-0.2643,-0.2642,-0.2641,-0.2542,-0.2539,-0.2537,0,0,0,0,0,0,0,0,0,0,0,0,0,-0.2278,-0.2142,-0.2404,-0.2461,-0.2469,-0.2614,-0.2616,-0.2617,-0.2644,-0.2643,-0.2642,-0.2641,-0.2542,-0.2539,-0.2536,-0.2539,0,0,-0.2527,-0.2526,0,0,0,0,0,0,0,0,-0.2269,-0.2285,-0.2448,-0.2457,-0.2467,-0.2614,-0.2486,-0.2581,-0.2644,-0.2562,-0.2641,-0.264,-0.2547,-0.2543,-0.2569,-0.2535,-0.253,-0.2527,-0.2525,-0.2524,-0.2523,0,0,0,0,0,0,0,-0.226,-0.2278,-0.2473,-0.2453,-0.2464,-0.2515,-0.253,-0.2505,-0.2541,-0.2569,-0.2575,-0.2622,-0.2547,-0.2572,-0.2566,-0.2529,-0.2527,-0.2524,-0.2523,-0.2521,-0.2457,-0.2458,0,0,0,0,0,0,-0.2258,-0.2268,-0.2467,-0.2481,-0.2379,-0.2521,-0.2538,-0.2556,-0.2548,-0.2553,-0.2622,-0.2623,-0.2578,-0.257,-0.2563,-0.2541,-0.2524,-0.2521,-0.2519,-0.2457,-0.2457,-0.2458,0,0,0,0,0,0,-0.2251,-0.2273,-0.2459,-0.2392,-0.2421,-0.2527,-0.2547,-0.2561,-0.2612,-0.2595,-0.259,-0.2663,-0.2577,-0.2567,-0.2545,-0.2537,-0.252,-0.2517,-0.2457,-0.2457,-0.2458,-0.2511,0,0,0,0,0,0,-0.2242,-0.2268,-0.2325,-0.2391,-0.2425,-0.2565,-0.255,-0.2567,-0.2647,-0.2649,-0.2627,-0.2616,-0.2575,-0.255,-0.2542,-0.2533,-0.2515,-0.2457,-0.2457,-0.2457,-0.2509,-0.2513,-0.2516,0,0,0,0,0,-0.2231,-0.2273,-0.2325,-0.2354,-0.2484,-0.2569,-0.2589,-0.2652,-0.2651,-0.2687,-0.2653,-0.2618,-0.2545,-0.2548,-0.2539,-0.2528,-0.2457,-0.2457,-0.2457,-0.2507,-0.2512,-0.2516,0,0,0,0,0,0,-0.2193,-0.2285,-0.2341,-0.2416,-0.2511,-0.2579,-0.2641,-0.2672,-0.2685,-0.2677,-0.2628,-0.2616,-0.2586,-0.2559,-0.2564,-0.251,-0.2492,-0.249,-0.2533,-0.2537,-0.254,-0.2553,-0.2512,0,0,0,0,0,-0.2219,-0.2263,-0.2375,-0.2441,-0.2493,-0.2576,-0.2635,-0.2671,-0.2687,-0.2696,-0.2657,-0.2616,-0.2581,-0.2563,-0.2524,-0.2508,-0.251,-0.2492,-0.2496,-0.2499,-0.2503,-0.2497,-0.2501,-0.2458,-0.2458,-0.2458,0,0,-0.2222,-0.2286,-0.2316,-0.2439,-0.2512,-0.2581,-0.2603,-0.2689,-0.2712,-0.2675,-0.2659,-0.2627,-0.258,-0.255,-0.2534,-0.2526,-0.252,-0.2499,-0.2503,-0.2504,-0.2497,-0.2502,-0.2506,-0.2459,-0.2459,-0.2459,0,0,-0.2252,-0.2312,-0.238,-0.2449,-0.2585,-0.2614,-0.2644,-0.2713,-0.2718,-0.2727,-0.2684,-0.2659,-0.2608,-0.257,-0.2546,-0.2553,-0.2538,-0.2534,-0.2563,-0.2558,-0.2562,-0.2565,-0.2613,-0.2619,-0.2538,-0.2538,-0.2538,0,-0.2297,-0.2359,-0.2418,-0.2505,-0.2557,-0.2622,-0.2692,-0.2709,-0.2744,-0.2737,-0.2721,-0.2657,-0.2615,-0.2584,-0.2578,-0.2559,-0.2574,-0.2552,-0.2564,-0.2567,-0.257,-0.2617,-0.2624,-0.2541,-0.254,-0.254,-0.254,0,-0.2353,-0.2437,-0.2471,-0.2578,-0.2637,-0.2696,-0.2739,-0.2754,-0.2749,-0.2758,-0.2732,-0.2687,-0.2654,-0.263,-0.2604,-0.2594,-0.2608,-0.2571,-0.2558,-0.2577,-0.2626,-0.2633,-0.2544,-0.2544,-0.2543,-0.2542,0,0,-0.2371,-0.25,-0.2515,-0.2578,-0.267,-0.2712,-0.2732,-0.2773,-0.2786,-0.2775,-0.2781,-0.2715,-0.2705,-0.2679,-0.2643,-0.2633,-0.267,-0.2614,-0.2613,-0.2672,-0.2706,-0.2501,-0.2489,-0.2636,-0.2636,-0.2636,-0.2749,0,-0.2425,-0.2553,-0.2591,-0.2682,-0.2749,-0.2778,-0.2789,-0.2817,-0.2817,-0.2822,-0.2783,-0.2769,-0.2719,-0.2716,-0.2697,-0.2671,-0.2682,-0.2646,-0.2669,-0.2671,-0.2492,-0.2486,-0.2314,-0.2378,-0.2755,-0.2756,-0.2757,0,-0.2464,-0.2546,-0.2645,-0.2733,-0.2765,-0.2801,-0.2822,-0.285,-0.2864,-0.2869,-0.286,-0.284,-0.2823,-0.2779,-0.2763,-0.2746,-0.2735,-0.2717,-0.272,-0.2508,-0.2474,-0.2409,-0.2375,-0.2767,-0.2766,-0.2765,-0.2765,0,-0.2404,-0.2562,-0.2623,-0.2657,-0.2771,-0.2791,-0.2826,-0.2855,-0.2868,-0.2903,-0.2921,-0.2908,-0.2907,-0.2878,-0.2835,-0.2811,-0.2832,-0.2793,-0.2614,-0.2604,-0.2446,-0.2417,-0.2792,-0.2792,-0.2792,-0.2791,-0.2791,0,-0.2385,-0.2445,-0.2604,-0.2635,-0.2699,-0.2777,-0.2817,-0.2854,-0.2901,-0.287,-0.2939,-0.289,-0.2926,-0.2924,-0.2884,-0.2762,-0.2875,-0.2615,-0.2595,-0.246,-0.2432,-0.2746,-0.2739,-0.2796,-0.2795,-0.2794,-0.2793,0,-0.228,-0.2389,-0.2503,-0.2648,-0.2677,-0.2722,-0.2809,-0.2808,-0.2896,-0.2863,-0.2871,-0.2914,-0.2865,-0.2916,-0.2893,-0.2798,-0.2727,-0.2669,-0.2529,-0.2482,-0.2509,-0.2504,-0.247,-0.2463,-0.2457,-0.2452,-0.2448,0,-0.2253,-0.2287,-0.2484,-0.2525,-0.2583,-0.2659,-0.2661,-0.2772,-0.2726,-0.2785,-0.2702,-0.2758,-0.2628,-0.261,-0.2538,-0.2493,-0.2593,-0.2281,-0.2141,-0.248,-0.2466,-0.247,-0.2473,-0.2017,-0.2009,-0.2003,-0.1999,0,-0.2197,-0.2267,-0.2343,-0.2404,-0.2446,-0.2471,-0.2463,-0.2444,-0.2484,-0.2507,-0.2394,-0.2343,-0.2311,-0.2142,-0.215,-0.2078,-0.2264,-0.2143,-0.2561,-0.2068,-0.2044,-0.2033,-0.2053,-0.1946,-0.1951,-0.1955,-0.1958,-0.196,-0.2168,-0.2184,-0.225,-0.2262,-0.228,-0.2175,-0.2125,-0.211,-0.2064,-0.2005,-0.2025,-0.1937,-0.1941,-0.1787,-0.171,-0.1709,-0.1827,-0.1754,-0.1778,-0.1807,-0.1676,-0.1636,-0.1445,-0.1447,-0.1449,-0.1451,-0.1452,0,-0.2103,-0.2057,-0.2072,-0.2048,-0.1905,-0.2003,-0.1884,-0.1805,-0.1684,-0.1693,-0.1639,-0.1461,-0.1353,-0.1403,-0.1286,-0.1222,-0.1284,-0.1179,-0.128,-0.133,-0.1376,-0.1229,-0.0877,-0.0875,-0.0874,-0.0872,0,0,-0.2064,-0.1971,-0.1913,-0.1637,-0.1602,-0.1412,-0.1324,-0.1299,-0.1266,-0.1203,-0.1194,-0.1297,-0.1303,-0.1095,-0.1045,-0.0933,-0.1127,-0.0888,-0.1347,-0.1513,-0.1557,-0.1697,-0.1522,0,0,0,0,0]},{"header":{"parameterUnit":"m.s-1","parameterCategory":2,"la1":30.2991,"la2":30.254,"lo1":-89.0895,"lo2":-89.0444,"dy":0.0017,"dx":0.0017,"nx":28,"ny":28,"refTime":"2025-11-17T09:00:00:Z","depth":"2","parameterNumber":3,"parameterNumberName":"V-component_of_CURRENTS"},"data":[0,0,0,0,0,0,0,0,0,0,0,0,0,0,0,0,0,0,0,0,0,0,0,0,0,0,0,0,0,0,0,0,0,0,0,0,0,0,0,0,0,0,0,0,0,0,0,0,0,0,0,0,0,0,0,0,0,0,-0.0459,-0.0458,0,-0.0265,-0.0262,-0.0259,-0.0167,-0.0168,-0.0168,-0.0169,0.0002,0.0007,0.0012,0,0,0,0,0,0,0,0,0,0,0,0,0,-0.0582,-0.0581,-0.046,-0.0458,-0.0456,-0.0265,-0.0262,-0.0259,-0.0167,-0.0168,-0.0169,-0.0169,0.0,0.0007,0.0013,0,0,0,0,0,0,0,0,0,0,0,0,0,-0.0466,-0.0581,-0.046,-0.0392,-0.0385,-0.0266,-0.0262,-0.0258,-0.0166,-0.0168,-0.0169,-0.017,-0.0002,0.0006,0.0014,0.0085,0,0,0.0038,0.0041,0,0,0,0,0,0,0,0,-0.0473,-0.0461,-0.0404,-0.0397,-0.0388,-0.0248,-0.0243,-0.0147,-0.0166,-0.0242,-0.0169,-0.017,-0.0087,-0.0072,-0.0023,0.0093,0.01,0.0039,0.0043,0.0047,0.0049,0,0,0,0,0,0,0,-0.0482,-0.0468,-0.0375,-0.0402,-0.0393,-0.0314,-0.03,-0.0223,-0.0156,-0.0235,-0.023,-0.0219,-0.0082,-0.0031,-0.0018,0.0103,0.0038,0.0045,0.005,0.0053,0.0301,0.0303,0,0,0,0,0,0,-0.0527,-0.0476,-0.0381,-0.037,-0.0442,-0.0313,-0.0296,-0.0286,-0.0156,-0.0139,-0.0219,-0.0216,-0.0043,-0.0028,-0.0012,0.0077,0.0047,0.0054,0.0059,0.0299,0.0301,0.0303,0,0,0,0,0,0,-0.0531,-0.0521,-0.0389,-0.0424,-0.0403,-0.0311,-0.0299,-0.0282,-0.023,-0.0144,-0.0126,-0.0187,-0.0044,-0.0023,0.0065,0.0084,0.0058,0.0065,0.0297,0.03,0.0302,0.0256,0,0,0,0,0,0,-0.0535,-0.0523,-0.0515,-0.0428,-0.0403,-0.0317,-0.0298,-0.0277,-0.0225,-0.0219,-0.0111,-0.0096,-0.0043,0.0053,0.0073,0.0094,0.0071,0.0294,0.0298,0.0301,0.0255,0.0257,0.0258,0,0,0,0,0,-0.054,-0.0536,-0.0515,-0.0503,-0.0401,-0.0317,-0.0295,-0.0228,-0.0223,-0.0188,-0.0119,-0.0099,0.0089,0.0061,0.0084,0.0108,0.0293,0.0297,0.0301,0.0255,0.0257,0.0258,0,0,0,0,0,0,-0.0576,-0.0524,-0.05,-0.0478,-0.0402,-0.0304,-0.0272,-0.0229,-0.0142,-0.0142,-0.0068,-0.0046,0.0037,0.0086,0.0054,0.0192,0.0192,0.0201,0.0149,0.0151,0.0153,0.0143,0.0078,0,0,0,0,0,-0.0585,-0.0573,-0.0497,-0.0474,-0.0447,-0.0358,-0.0314,-0.0266,-0.0189,-0.0152,-0.0082,-0.0004,0.0077,0.012,0.0199,0.0279,0.0315,0.0309,0.031,0.0311,0.0321,0.0389,0.0396,0.0317,0.0317,0.0317,0,0,-0.0592,-0.0563,-0.0554,-0.0481,-0.0423,-0.0362,-0.0332,-0.027,-0.0208,-0.0148,-0.0053,0.0006,0.0101,0.0189,0.023,0.0228,0.0352,0.0316,0.0316,0.0326,0.0394,0.0401,0.0408,0.032,0.0319,0.0319,0,0,-0.06,-0.0577,-0.0564,-0.0505,-0.0429,-0.0367,-0.0356,-0.0257,-0.0204,-0.0108,-0.0053,0.0021,0.0142,0.0218,0.0269,0.0332,0.0357,0.0346,0.0349,0.0413,0.0419,0.0425,0.0467,0.0477,0.0346,0.0346,0.0346,0,-0.0605,-0.0578,-0.0539,-0.0499,-0.0453,-0.0377,-0.0328,-0.0251,-0.0132,-0.0084,-0.0088,0.0099,0.0163,0.0285,0.0298,0.0335,0.0361,0.0325,0.0411,0.0419,0.0426,0.0467,0.0479,0.0344,0.0345,0.0345,0.0345,0,-0.0596,-0.0559,-0.0546,-0.0475,-0.0416,-0.0364,-0.0269,-0.0203,-0.0151,-0.0073,0.0042,0.0133,0.0237,0.0267,0.0301,0.0391,0.0388,0.0399,0.0394,0.043,0.0472,0.0485,0.0342,0.0343,0.0343,0.0344,0,0,-0.0638,-0.0556,-0.0549,-0.0509,-0.0402,-0.0353,-0.026,-0.0145,-0.0084,0.0015,0.01,0.0226,0.0252,0.0313,0.0363,0.0419,0.0476,0.0416,0.042,0.0435,0.0596,0.0505,0.051,0.0486,0.0489,0.0491,0.0599,0,-0.0631,-0.0582,-0.0527,-0.0447,-0.0408,-0.0311,-0.0229,-0.012,-0.0031,0.007,0.0169,0.0259,0.0279,0.0306,0.0372,0.0455,0.0511,0.0445,0.058,0.0584,0.0481,0.0523,0.0516,0.0604,0.0612,0.0614,0.0616,0,-0.0633,-0.06,-0.0549,-0.0441,-0.0414,-0.0356,-0.023,-0.014,0.0017,0.0081,0.0185,0.0256,0.0369,0.036,0.0523,0.047,0.0529,0.0586,0.0592,0.0534,0.0517,0.0577,0.0627,0.0638,0.0636,0.0634,0.0633,0,-0.0706,-0.0605,-0.0576,-0.0539,-0.0412,-0.037,-0.0297,-0.0151,-0.008,0.0073,0.012,0.0276,0.0334,0.0444,0.0551,0.0532,0.0715,0.071,0.0695,0.0689,0.0727,0.0719,0.0826,0.0826,0.0826,0.0826,0.0825,0,-0.0729,-0.0692,-0.0616,-0.0599,-0.0554,-0.0439,-0.0367,-0.0268,-0.0129,-0.0079,0.0096,0.0134,0.035,0.0473,0.0568,0.0665,0.0732,0.0706,0.0717,0.0708,0.0697,0.0764,0.0756,0.083,0.0829,0.0828,0.0827,0,-0.0806,-0.0752,-0.0714,-0.0619,-0.0595,-0.057,-0.0452,-0.0397,-0.0254,-0.0189,-0.0158,0.0047,0.0185,0.041,0.0603,0.0662,0.0781,0.0802,0.076,0.0762,0.0708,0.0696,0.0792,0.079,0.0788,0.0787,0.0785,0,-0.0835,-0.0833,-0.0779,-0.0782,-0.0747,-0.0692,-0.066,-0.05,-0.0463,-0.0295,-0.0299,-0.0103,-0.0009,0.0291,0.0493,0.0703,0.0737,0.0762,0.072,0.0706,0.0708,0.0699,0.069,0.0768,0.0767,0.0766,0.0765,0,-0.0892,-0.0888,-0.0874,-0.09,-0.0889,-0.0851,-0.0809,-0.0789,-0.0635,-0.0554,-0.0472,-0.037,-0.0082,0.0159,0.0454,0.0556,0.0729,0.0735,0.0794,0.0737,0.0682,0.0683,0.0676,0.0755,0.0756,0.0757,0.0757,0.0758,-0.0945,-0.0968,-0.0977,-0.0993,-0.0993,-0.0995,-0.0966,-0.0925,-0.0851,-0.0705,-0.0635,-0.0429,-0.0182,0.0235,0.042,0.0628,0.0616,0.067,0.0676,0.0683,0.062,0.056,0.06,0.06,0.06,0.06,0.06,0,-0.0994,-0.1021,-0.1059,-0.1068,-0.1082,-0.1063,-0.1043,-0.0995,-0.0935,-0.0799,-0.0659,-0.0376,-0.0097,0.0177,0.0475,0.0599,0.0649,0.0622,0.0684,0.0692,0.0699,0.064,0.0624,0.0624,0.0625,0.0625,0,0,-0.1021,-0.1068,-0.1084,-0.1122,-0.1135,-0.1122,-0.1102,-0.1051,-0.094,-0.0778,-0.0598,-0.0359,-0.0079,0.0137,0.0346,0.0496,0.0554,0.0507,0.0473,0.0529,0.0535,0.0709,0.0623,0,0,0,0,0]}],[{"header":{"parameterUnit":"m.s-1","parameterCategory":2,"la1":30.2991,"la2":30.254,"lo1":-89.0895,"lo2":-89.0444,"dy":0.0017,"dx":0.0017,"nx":28,"ny":28,"refTime":"2025-11-17T09:00:00:Z","depth":"4","parameterNumber":2,"parameterNumberName":"U-component_of_CURRENTS"},"data":[0,0,0,0,0,0,0,0,0,0,0,0,0,0,0,0,0,0,0,0,0,0,0,0,0,0,0,0,0,0,0,0,0,0,0,0,0,0,0,0,0,0,0,0,0,0,0,0,0,0,0,0,0,0,0,0,0,0,-0.1121,-0.1121,0,-0.1156,-0.1157,-0.1157,-0.1196,-0.1196,-0.1197,-0.1197,-0.123,-0.123,-0.1231,0,0,0,0,0,0,0,0,0,0,0,0,0,-0.1078,-0.1078,-0.1121,-0.1121,-0.1122,-0.1156,-0.1157,-0.1158,-0.1196,-0.1196,-0.1197,-0.1198,-0.123,-0.123,-0.1231,0,0,0,0,0,0,0,0,0,0,0,0,0,-0.1104,-0.1079,-0.1121,-0.1144,-0.1147,-0.1156,-0.1157,-0.1158,-0.1196,-0.1196,-0.1197,-0.1198,-0.123,-0.123,-0.1231,-0.1221,0,0,-0.1233,-0.1233,0,0,0,0,0,0,0,0,-0.1102,-0.1106,-0.1141,-0.1143,-0.1145,-0.1172,-0.1154,-0.1178,-0.1196,-0.1178,-0.1197,-0.1198,-0.1209,-0.1211,-0.1218,-0.1222,-0.1224,-0.1233,-0.1233,-0.1234,-0.1234,0,0,0,0,0,0,0,-0.1101,-0.1104,-0.1136,-0.1141,-0.1144,-0.115,-0.1155,-0.1158,-0.119,-0.118,-0.1182,-0.1185,-0.1211,-0.1217,-0.1219,-0.1224,-0.1233,-0.1233,-0.1234,-0.1234,-0.1313,-0.1314,0,0,0,0,0,0,-0.1094,-0.1103,-0.1135,-0.1137,-0.1124,-0.115,-0.1155,-0.1163,-0.119,-0.1194,-0.1184,-0.1186,-0.1216,-0.1218,-0.122,-0.1285,-0.1234,-0.1234,-0.1235,-0.1311,-0.1313,-0.1315,0,0,0,0,0,0,-0.1093,-0.1097,-0.1133,-0.1119,-0.1124,-0.115,-0.1159,-0.1164,-0.119,-0.1193,-0.1198,-0.1207,-0.1216,-0.1219,-0.1258,-0.1283,-0.1234,-0.1235,-0.1309,-0.1312,-0.1314,-0.1365,0,0,0,0,0,0,-0.1092,-0.1096,-0.1105,-0.1119,-0.1125,-0.115,-0.1158,-0.1164,-0.1188,-0.1192,-0.1214,-0.1216,-0.1217,-0.1257,-0.1258,-0.1283,-0.1236,-0.1307,-0.131,-0.1313,-0.1361,-0.1369,-0.1376,0,0,0,0,0,-0.109,-0.11,-0.1105,-0.1109,-0.1135,-0.115,-0.1154,-0.1175,-0.1189,-0.1201,-0.1232,-0.1217,-0.1278,-0.1259,-0.126,-0.1286,-0.1305,-0.1309,-0.1313,-0.1358,-0.1367,-0.1375,0,0,0,0,0,0,-0.1086,-0.1105,-0.1111,-0.1127,-0.1141,-0.1156,-0.1172,-0.1184,-0.1217,-0.1231,-0.1237,-0.1242,-0.1292,-0.1281,-0.1259,-0.132,-0.129,-0.1294,-0.1323,-0.1332,-0.1339,-0.1311,-0.1236,0,0,0,0,0,-0.1087,-0.1102,-0.1116,-0.1129,-0.114,-0.1159,-0.117,-0.1187,-0.1212,-0.1228,-0.1248,-0.1274,-0.1304,-0.1312,-0.1337,-0.1358,-0.1345,-0.1377,-0.1384,-0.139,-0.137,-0.14,-0.1408,-0.1327,-0.1327,-0.1327,0,0,-0.1091,-0.1101,-0.1111,-0.113,-0.1146,-0.1164,-0.1169,-0.1196,-0.1219,-0.1225,-0.1276,-0.1306,-0.132,-0.1362,-0.138,-0.1355,-0.1408,-0.1395,-0.14,-0.1376,-0.1405,-0.1413,-0.1419,-0.133,-0.133,-0.1329,0,0,-0.1094,-0.1115,-0.1125,-0.1141,-0.1166,-0.1181,-0.1192,-0.1224,-0.1248,-0.1295,-0.1316,-0.1358,-0.1397,-0.1412,-0.1423,-0.1478,-0.1457,-0.1494,-0.1493,-0.1524,-0.153,-0.1535,-0.1529,-0.1533,-0.1484,-0.1485,-0.1485,0,-0.1093,-0.111,-0.1131,-0.1144,-0.116,-0.119,-0.1207,-0.1236,-0.128,-0.1301,-0.1321,-0.1403,-0.1418,-0.1456,-0.1479,-0.1492,-0.1495,-0.1459,-0.1532,-0.1537,-0.1541,-0.1533,-0.1537,-0.1487,-0.1487,-0.1487,-0.1487,0,-0.11,-0.112,-0.1132,-0.116,-0.1182,-0.1205,-0.1241,-0.1277,-0.1318,-0.1346,-0.1415,-0.145,-0.1492,-0.1511,-0.151,-0.1551,-0.1538,-0.1549,-0.1504,-0.1552,-0.1541,-0.1544,-0.1492,-0.1491,-0.149,-0.1489,0,0,-0.1068,-0.1124,-0.1126,-0.1143,-0.1194,-0.1208,-0.1259,-0.13,-0.1333,-0.1395,-0.1442,-0.1499,-0.1527,-0.154,-0.1556,-0.1566,-0.1605,-0.1565,-0.1565,-0.1548,-0.1652,-0.155,-0.1543,-0.1638,-0.1639,-0.1639,-0.163,0,-0.1061,-0.1089,-0.1122,-0.1155,-0.1176,-0.1223,-0.1261,-0.1309,-0.1367,-0.1424,-0.1472,-0.153,-0.1537,-0.1568,-0.1588,-0.161,-0.1616,-0.1604,-0.1616,-0.1615,-0.1511,-0.1545,-0.1643,-0.1633,-0.1633,-0.1634,-0.1634,0,-0.1045,-0.1069,-0.1103,-0.1153,-0.1165,-0.1194,-0.1259,-0.1297,-0.1381,-0.143,-0.1499,-0.1549,-0.1592,-0.1598,-0.1639,-0.1637,-0.1641,-0.1644,-0.1645,-0.1525,-0.1518,-0.1577,-0.1639,-0.1639,-0.1638,-0.1638,-0.1638,0,-0.0999,-0.1048,-0.1075,-0.1095,-0.1161,-0.1186,-0.1223,-0.1301,-0.1337,-0.1439,-0.1486,-0.156,-0.1604,-0.1633,-0.1654,-0.1658,-0.1683,-0.1696,-0.1599,-0.1592,-0.1662,-0.1656,-0.1712,-0.1712,-0.1712,-0.1712,-0.1712,0,-0.0965,-0.0984,-0.1059,-0.1071,-0.1093,-0.116,-0.1197,-0.1248,-0.1338,-0.139,-0.1486,-0.1534,-0.1619,-0.1654,-0.1662,-0.1631,-0.1699,-0.1586,-0.1584,-0.1684,-0.1682,-0.1664,-0.1658,-0.1712,-0.1712,-0.1712,-0.1712,0,-0.0903,-0.0955,-0.0984,-0.1055,-0.1072,-0.1089,-0.1159,-0.1193,-0.1289,-0.1365,-0.1401,-0.152,-0.1565,-0.1614,-0.1656,-0.1625,-0.1614,-0.1584,-0.1663,-0.1669,-0.1496,-0.1494,-0.1472,-0.1468,-0.1465,-0.1463,-0.1461,0,-0.0873,-0.089,-0.0952,-0.0957,-0.0987,-0.1025,-0.105,-0.1151,-0.1201,-0.1344,-0.1376,-0.1461,-0.1529,-0.1497,-0.1555,-0.1548,-0.1537,-0.1516,-0.1516,-0.1472,-0.1473,-0.1475,-0.1477,-0.1456,-0.1455,-0.1454,-0.1453,0,-0.0812,-0.0845,-0.0864,-0.0877,-0.0902,-0.0933,-0.099,-0.1021,-0.1157,-0.1245,-0.1327,-0.1368,-0.1409,-0.144,-0.1436,-0.1437,-0.1525,-0.1483,-0.149,-0.149,-0.1452,-0.1457,-0.1462,-0.1443,-0.1444,-0.1445,-0.1446,0,-0.076,-0.0754,-0.0782,-0.0781,-0.0814,-0.0849,-0.0889,-0.0961,-0.1023,-0.1203,-0.1219,-0.1319,-0.1403,-0.138,-0.1384,-0.1368,-0.1355,-0.1322,-0.1337,-0.1349,-0.1313,-0.1247,-0.1161,0,0,0,0,0,-0.07,-0.0682,-0.068,-0.0688,-0.0725,-0.0749,-0.0853,-0.0915,-0.1052,-0.108,-0.1156,-0.1197,-0.1229,-0.1268,-0.1226,-0.1311,-0.1346,-0.1256,-0.1313,-0.1383,-0.1396,-0.1365,0,0,0,0,0,0,-0.0654,-0.0648,-0.0649,-0.0618,-0.0611,-0.0659,-0.0732,-0.0831,-0.086,-0.0996,-0.1013,-0.1105,-0.1137,-0.1219,-0.1189,-0.1199,-0.121,-0.1307,-0.1304,-0.1376,-0.1388,-0.1398,-0.137,0,0,0,0,0]},{"header":{"parameterUnit":"m.s-1","parameterCategory":2,"la1":30.2991,"la2":30.254,"lo1":-89.0895,"lo2":-89.0444,"dy":0.0017,"dx":0.0017,"nx":28,"ny":28,"refTime":"2025-11-17T09:00:00:Z","depth":"4","parameterNumber":3,"parameterNumberName":"V-component_of_CURRENTS"},"data":[0,0,0,0,0,0,0,0,0,0,0,0,0,0,0,0,0,0,0,0,0,0,0,0,0,0,0,0,0,0,0,0,0,0,0,0,0,0,0,0,0,0,0,0,0,0,0,0,0,0,0,0,0,0,0,0,0,0,-0.041,-0.041,0,-0.037,-0.0369,-0.0368,-0.0334,-0.0334,-0.0334,-0.0333,-0.0289,-0.0288,-0.0287,0,0,0,0,0,0,0,0,0,0,0,0,0,-0.0427,-0.0427,-0.041,-0.041,-0.0409,-0.037,-0.0369,-0.0368,-0.0334,-0.0334,-0.0334,-0.0333,-0.0289,-0.0288,-0.0287,0,0,0,0,0,0,0,0,0,0,0,0,0,-0.0405,-0.0427,-0.041,-0.0389,-0.0386,-0.037,-0.0369,-0.0368,-0.0334,-0.0334,-0.0333,-0.0333,-0.029,-0.0288,-0.0287,-0.0285,0,0,-0.0283,-0.0282,0,0,0,0,0,0,0,0,-0.0406,-0.0404,-0.0392,-0.039,-0.0388,-0.0358,-0.0359,-0.0341,-0.0334,-0.0352,-0.0333,-0.0333,-0.0313,-0.031,-0.0301,-0.0283,-0.0281,-0.0282,-0.0282,-0.0281,-0.0281,0,0,0,0,0,0,0,-0.0408,-0.0405,-0.0392,-0.0392,-0.0389,-0.0371,-0.0367,-0.0355,-0.0334,-0.0351,-0.0348,-0.0347,-0.0312,-0.0302,-0.0299,-0.028,-0.0282,-0.0281,-0.028,-0.028,-0.0253,-0.0254,0,0,0,0,0,0,-0.0418,-0.0407,-0.0394,-0.0391,-0.0398,-0.0371,-0.0367,-0.0366,-0.0334,-0.0329,-0.0347,-0.0345,-0.0305,-0.0301,-0.0298,-0.0307,-0.0281,-0.028,-0.0279,-0.0253,-0.0254,-0.0254,0,0,0,0,0,0,-0.0418,-0.0417,-0.0395,-0.0399,-0.0395,-0.0371,-0.0371,-0.0366,-0.036,-0.0332,-0.0326,-0.0346,-0.0304,-0.03,-0.0283,-0.0305,-0.0279,-0.0278,-0.0253,-0.0253,-0.0254,-0.0317,0,0,0,0,0,0,-0.0419,-0.0418,-0.0424,-0.04,-0.0396,-0.0395,-0.0371,-0.0365,-0.036,-0.0357,-0.0329,-0.0324,-0.0304,-0.0286,-0.0282,-0.0302,-0.0277,-0.0253,-0.0253,-0.0254,-0.0315,-0.0319,-0.0323,0,0,0,0,0,-0.042,-0.0428,-0.0424,-0.0423,-0.0404,-0.0395,-0.0392,-0.0372,-0.036,-0.0363,-0.0336,-0.0325,-0.0285,-0.0284,-0.028,-0.03,-0.0253,-0.0253,-0.0254,-0.0313,-0.0319,-0.0323,0,0,0,0,0,0,-0.0434,-0.0425,-0.042,-0.0424,-0.0416,-0.039,-0.039,-0.0378,-0.0359,-0.0354,-0.0325,-0.0318,-0.031,-0.0293,-0.0293,-0.0292,-0.0269,-0.0268,-0.0315,-0.032,-0.0325,-0.0341,-0.0275,0,0,0,0,0,-0.0443,-0.0447,-0.0435,-0.0438,-0.0437,-0.0416,-0.041,-0.0398,-0.0378,-0.0369,-0.0352,-0.0328,-0.0308,-0.0305,-0.0282,-0.0286,-0.0251,-0.0295,-0.03,-0.0304,-0.0313,-0.0268,-0.027,-0.0255,-0.0255,-0.0255,0,0,-0.0448,-0.0444,-0.0446,-0.0442,-0.0432,-0.0439,-0.0411,-0.0407,-0.0412,-0.0368,-0.0369,-0.034,-0.0308,-0.0305,-0.0302,-0.0297,-0.0288,-0.0304,-0.0308,-0.0315,-0.0269,-0.027,-0.0271,-0.0255,-0.0255,-0.0255,0,0,-0.0464,-0.0459,-0.0472,-0.0471,-0.0466,-0.0455,-0.0459,-0.0443,-0.0436,-0.043,-0.0396,-0.0379,-0.0357,-0.034,-0.0327,-0.0343,-0.0305,-0.034,-0.0387,-0.0344,-0.0345,-0.0345,-0.0298,-0.0294,-0.0351,-0.0352,-0.0352,0,-0.0471,-0.0487,-0.0474,-0.0488,-0.0493,-0.0468,-0.0485,-0.0475,-0.0457,-0.0453,-0.0439,-0.0396,-0.0374,-0.0365,-0.0374,-0.0355,-0.032,-0.0372,-0.035,-0.035,-0.0349,-0.0301,-0.0296,-0.0355,-0.0354,-0.0354,-0.0354,0,-0.0499,-0.0514,-0.0521,-0.0534,-0.0538,-0.0546,-0.0537,-0.0536,-0.0523,-0.051,-0.0496,-0.0458,-0.0435,-0.043,-0.0409,-0.0403,-0.0374,-0.0354,-0.034,-0.0355,-0.0303,-0.0296,-0.0359,-0.0358,-0.0357,-0.0356,0,0,-0.0504,-0.0537,-0.0539,-0.0559,-0.0564,-0.057,-0.0581,-0.0582,-0.0589,-0.0566,-0.0566,-0.0538,-0.0514,-0.0497,-0.0469,-0.0446,-0.0413,-0.0411,-0.0407,-0.0371,-0.0312,-0.0272,-0.026,-0.0387,-0.0386,-0.0386,-0.0275,0,-0.053,-0.0574,-0.0581,-0.062,-0.064,-0.0631,-0.0648,-0.0644,-0.0631,-0.0623,-0.0581,-0.0566,-0.054,-0.053,-0.0502,-0.0428,-0.0399,-0.0444,-0.0297,-0.0293,-0.0261,-0.0252,-0.0383,-0.027,-0.0268,-0.0267,-0.0266,0,-0.0553,-0.0582,-0.0632,-0.067,-0.0679,-0.07,-0.0717,-0.0728,-0.0708,-0.0695,-0.0669,-0.0626,-0.0588,-0.056,-0.0451,-0.0479,-0.0408,-0.0352,-0.0345,-0.0284,-0.0241,-0.0252,-0.0253,-0.0254,-0.0255,-0.0256,-0.0257,0,-0.0563,-0.0613,-0.0659,-0.0672,-0.0712,-0.0733,-0.0749,-0.0749,-0.0758,-0.0736,-0.0725,-0.0669,-0.0624,-0.0539,-0.0424,-0.0433,-0.029,-0.028,-0.0176,-0.0172,-0.0214,-0.0215,-0.0204,-0.0204,-0.0204,-0.0205,-0.0205,0,-0.0582,-0.0617,-0.0671,-0.0695,-0.0748,-0.0763,-0.0805,-0.0809,-0.0808,-0.0804,-0.0763,-0.0724,-0.0616,-0.0518,-0.0425,-0.0272,-0.0282,-0.018,-0.0141,-0.0242,-0.0247,-0.0208,-0.021,-0.0201,-0.0202,-0.0202,-0.0203,0,-0.0582,-0.062,-0.0676,-0.0735,-0.0757,-0.0793,-0.0841,-0.0861,-0.0859,-0.0846,-0.0836,-0.0748,-0.0607,-0.0494,-0.0333,-0.0259,-0.013,-0.0076,-0.0187,-0.0156,-0.0041,-0.0048,0.0052,0.0054,0.0056,0.0057,0.0059,0,-0.0585,-0.0616,-0.0701,-0.074,-0.0772,-0.0826,-0.0861,-0.0884,-0.0889,-0.0843,-0.0821,-0.0698,-0.0619,-0.0354,-0.0249,-0.0064,-0.0042,0.0012,-0.0029,-0.0044,-0.0015,-0.0025,-0.0034,0.0062,0.0062,0.0063,0.0064,0,-0.0588,-0.0625,-0.0671,-0.0752,-0.0806,-0.0859,-0.0897,-0.09,-0.0899,-0.0901,-0.0769,-0.064,-0.0474,-0.0303,-0.0161,-0.0035,-0.0035,0.0033,0.0029,-0.0009,-0.003,-0.0006,-0.0017,0.007,0.0069,0.0069,0.0068,0,-0.0586,-0.0618,-0.0685,-0.0753,-0.0821,-0.0858,-0.0886,-0.0864,-0.0862,-0.0801,-0.0743,-0.0583,-0.0491,-0.0284,-0.0152,-0.0027,-0.0001,0.0018,0.0015,0.0009,-0.0046,-0.0081,0.0041,0,0,0,0,0,-0.0575,-0.0612,-0.0679,-0.0754,-0.0819,-0.0857,-0.0893,-0.0908,-0.0898,-0.0795,-0.0766,-0.0602,-0.0373,-0.0277,-0.0137,-0.0139,-0.0006,0.0024,0.0007,0.0108,0.01,0.0046,0,0,0,0,0,0,-0.0573,-0.0629,-0.067,-0.0737,-0.0782,-0.0846,-0.0867,-0.0866,-0.0799,-0.0764,-0.0631,-0.0574,-0.035,-0.0442,-0.0132,-0.0098,-0.0091,0.0124,0.0127,0.0113,0.0106,0.0099,0.004,0,0,0,0,0]}]]